Year,Month,Day,Hour,Minute,Value (Times are PST for temperature in C)
2006,07,22,00,00,21.30
2006,07,22,00,01,21.30
2006,07,22,00,02,21.30
2006,07,22,00,03,21.30
2006,07,22,00,04,21.30
2006,07,22,00,05,21.30
2006,07,22,00,06,21.30
2006,07,22,00,07,21.30
2006,07,22,00,08,21.30
2006,07,22,00,09,21.30
2006,07,22,00,10,21.30
2006,07,22,00,11,21.20
2006,07,22,00,12,21.20
2006,07,22,00,13,21.20
2006,07,22,00,14,21.20
2006,07,22,00,15,21.20
2006,07,22,00,16,21.20
2006,07,22,00,17,21.20
2006,07,22,00,18,21.20
2006,07,22,00,19,21.20
2006,07,22,00,20,21.20
2006,07,22,00,21,21.20
2006,07,22,00,22,21.10
2006,07,22,00,23,21.10
2006,07,22,00,24,21.10
2006,07,22,00,25,21.00
2006,07,22,00,26,21.00
2006,07,22,00,27,21.00
2006,07,22,00,28,21.00
2006,07,22,00,29,21.00
2006,07,22,00,30,20.90
2006,07,22,00,31,20.90
2006,07,22,00,32,20.90
2006,07,22,00,33,20.90
2006,07,22,00,34,20.80
2006,07,22,00,35,20.80
2006,07,22,00,36,20.80
2006,07,22,00,37,20.70
2006,07,22,00,38,20.70
2006,07,22,00,39,20.60
2006,07,22,00,40,20.60
2006,07,22,00,41,20.60
2006,07,22,00,42,20.60
2006,07,22,00,43,20.60
2006,07,22,00,44,20.60
2006,07,22,00,45,20.60
2006,07,22,00,46,20.60
2006,07,22,00,47,20.50
2006,07,22,00,48,20.50
2006,07,22,00,49,20.50
2006,07,22,00,50,20.50
2006,07,22,00,51,20.50
2006,07,22,00,52,20.50
2006,07,22,00,53,20.40
2006,07,22,00,54,20.40
2006,07,22,00,55,20.40
2006,07,22,00,56,20.30
2006,07,22,00,57,20.30
2006,07,22,00,58,20.30
2006,07,22,00,59,20.30
2006,07,22,01,00,20.20
2006,07,22,01,01,20.20
2006,07,22,01,02,20.20
2006,07,22,01,03,20.20
2006,07,22,01,04,20.20
2006,07,22,01,05,20.20
2006,07,22,01,06,20.20
2006,07,22,01,07,20.20
2006,07,22,01,08,20.20
2006,07,22,01,09,20.20
2006,07,22,01,10,20.20
2006,07,22,01,11,20.20
2006,07,22,01,12,20.20
2006,07,22,01,13,20.20
2006,07,22,01,14,20.20
2006,07,22,01,15,20.30
2006,07,22,01,16,20.30
2006,07,22,01,17,20.30
2006,07,22,01,18,20.30
2006,07,22,01,19,20.30
2006,07,22,01,20,20.30
2006,07,22,01,21,20.30
2006,07,22,01,22,20.30
2006,07,22,01,23,20.30
2006,07,22,01,24,20.30
2006,07,22,01,25,20.30
2006,07,22,01,26,20.30
2006,07,22,01,27,20.30
2006,07,22,01,28,20.30
2006,07,22,01,29,20.30
2006,07,22,01,30,20.40
2006,07,22,01,31,20.40
2006,07,22,01,32,20.40
2006,07,22,01,33,20.40
2006,07,22,01,34,20.40
2006,07,22,01,35,20.40
2006,07,22,01,36,20.40
2006,07,22,01,37,20.40
2006,07,22,01,38,20.40
2006,07,22,01,39,20.40
2006,07,22,01,40,20.40
2006,07,22,01,41,20.50
2006,07,22,01,42,20.50
2006,07,22,01,43,20.50
2006,07,22,01,44,20.50
2006,07,22,01,45,20.50
2006,07,22,01,46,20.50
2006,07,22,01,47,20.50
2006,07,22,01,48,20.50
2006,07,22,01,49,20.50
2006,07,22,01,50,20.50
2006,07,22,01,51,20.50
2006,07,22,01,52,20.50
2006,07,22,01,53,20.50
2006,07,22,01,54,20.50
2006,07,22,01,55,20.50
2006,07,22,01,56,20.50
2006,07,22,01,57,20.50
2006,07,22,01,58,20.50
2006,07,22,01,59,20.50
2006,07,22,02,00,20.40
2006,07,22,02,01,20.40
2006,07,22,02,02,20.30
2006,07,22,02,03,20.20
2006,07,22,02,04,20.20
2006,07,22,02,05,20.10
2006,07,22,02,06,20.10
2006,07,22,02,07,20.00
2006,07,22,02,08,19.90
2006,07,22,02,09,19.90
2006,07,22,02,10,19.90
2006,07,22,02,11,19.90
2006,07,22,02,12,19.90
2006,07,22,02,13,19.90
2006,07,22,02,14,19.90
2006,07,22,02,15,19.90
2006,07,22,02,16,19.90
2006,07,22,02,17,19.90
2006,07,22,02,18,19.90
2006,07,22,02,19,19.80
2006,07,22,02,20,19.80
2006,07,22,02,21,19.80
2006,07,22,02,22,19.80
2006,07,22,02,23,19.80
2006,07,22,02,24,19.80
2006,07,22,02,25,19.80
2006,07,22,02,26,19.80
2006,07,22,02,27,19.80
2006,07,22,02,28,19.70
2006,07,22,02,29,19.70
2006,07,22,02,30,19.70
2006,07,22,02,31,19.70
2006,07,22,02,32,19.70
2006,07,22,02,33,19.70
2006,07,22,02,34,19.70
2006,07,22,02,35,19.60
2006,07,22,02,36,19.60
2006,07,22,02,37,19.60
2006,07,22,02,38,19.70
2006,07,22,02,39,19.70
2006,07,22,02,40,19.70
2006,07,22,02,41,19.70
2006,07,22,02,42,19.80
2006,07,22,02,43,19.80
2006,07,22,02,44,19.80
2006,07,22,02,45,19.80
2006,07,22,02,46,19.80
2006,07,22,02,47,19.80
2006,07,22,02,48,19.80
2006,07,22,02,49,19.80
2006,07,22,02,50,19.80
2006,07,22,02,51,19.80
2006,07,22,02,52,19.80
2006,07,22,02,53,19.80
2006,07,22,02,54,19.80
2006,07,22,02,55,19.90
2006,07,22,02,56,19.90
2006,07,22,02,57,19.90
2006,07,22,02,58,19.80
2006,07,22,02,59,19.80
2006,07,22,03,00,19.80
2006,07,22,03,01,19.80
2006,07,22,03,02,19.80
2006,07,22,03,03,19.80
2006,07,22,03,04,19.70
2006,07,22,03,05,19.70
2006,07,22,03,06,19.70
2006,07,22,03,07,19.70
2006,07,22,03,08,19.70
2006,07,22,03,09,19.70
2006,07,22,03,10,19.70
2006,07,22,03,11,19.70
2006,07,22,03,12,19.70
2006,07,22,03,13,19.70
2006,07,22,03,14,19.70
2006,07,22,03,15,19.70
2006,07,22,03,16,19.70
2006,07,22,03,17,19.70
2006,07,22,03,18,19.70
2006,07,22,03,19,19.80
2006,07,22,03,20,19.80
2006,07,22,03,21,19.80
2006,07,22,03,22,19.80
2006,07,22,03,23,19.80
2006,07,22,03,24,19.80
2006,07,22,03,25,19.80
2006,07,22,03,26,19.80
2006,07,22,03,27,19.80
2006,07,22,03,28,19.80
2006,07,22,03,29,19.80
2006,07,22,03,30,19.90
2006,07,22,03,31,19.90
2006,07,22,03,32,19.90
2006,07,22,03,33,19.90
2006,07,22,03,34,19.90
2006,07,22,03,35,19.90
2006,07,22,03,36,19.90
2006,07,22,03,37,19.90
2006,07,22,03,38,19.90
2006,07,22,03,39,19.90
2006,07,22,03,40,19.90
2006,07,22,03,41,19.90
2006,07,22,03,42,19.90
2006,07,22,03,43,19.90
2006,07,22,03,44,19.90
2006,07,22,03,45,19.90
2006,07,22,03,46,19.90
2006,07,22,03,47,19.90
2006,07,22,03,48,19.90
2006,07,22,03,49,19.90
2006,07,22,03,50,19.90
2006,07,22,03,51,19.90
2006,07,22,03,52,19.90
2006,07,22,03,53,19.90
2006,07,22,03,54,19.90
2006,07,22,03,55,20.00
2006,07,22,03,56,20.00
2006,07,22,03,57,19.90
2006,07,22,03,58,19.90
2006,07,22,03,59,19.90
2006,07,22,04,00,19.90
2006,07,22,04,01,19.90
2006,07,22,04,02,19.90
2006,07,22,04,03,19.90
2006,07,22,04,04,19.90
2006,07,22,04,05,19.90
2006,07,22,04,06,19.90
2006,07,22,04,07,19.90
2006,07,22,04,08,19.90
2006,07,22,04,09,19.90
2006,07,22,04,10,19.90
2006,07,22,04,11,19.90
2006,07,22,04,12,19.90
2006,07,22,04,13,19.90
2006,07,22,04,14,19.90
2006,07,22,04,15,19.90
2006,07,22,04,16,19.90
2006,07,22,04,17,19.90
2006,07,22,04,18,19.90
2006,07,22,04,19,19.90
2006,07,22,04,20,19.90
2006,07,22,04,21,19.90
2006,07,22,04,22,19.90
2006,07,22,04,23,19.80
2006,07,22,04,24,19.80
2006,07,22,04,25,19.80
2006,07,22,04,26,19.80
2006,07,22,04,27,19.80
2006,07,22,04,28,19.80
2006,07,22,04,29,19.80
2006,07,22,04,30,19.80
2006,07,22,04,31,19.80
2006,07,22,04,32,19.80
2006,07,22,04,33,19.70
2006,07,22,04,34,19.70
2006,07,22,04,35,19.70
2006,07,22,04,36,19.70
2006,07,22,04,37,19.70
2006,07,22,04,38,19.70
2006,07,22,04,39,19.60
2006,07,22,04,40,19.60
2006,07,22,04,41,19.60
2006,07,22,04,42,19.60
2006,07,22,04,43,19.60
2006,07,22,04,44,19.50
2006,07,22,04,45,19.50
2006,07,22,04,46,19.50
2006,07,22,04,47,19.50
2006,07,22,04,48,19.50
2006,07,22,04,49,19.50
2006,07,22,04,50,19.50
2006,07,22,04,51,19.40
2006,07,22,04,52,19.40
2006,07,22,04,53,19.40
2006,07,22,04,54,19.40
2006,07,22,04,55,19.40
2006,07,22,04,56,19.40
2006,07,22,04,57,19.40
2006,07,22,04,58,19.40
2006,07,22,04,59,19.30
2006,07,22,05,00,19.30
2006,07,22,05,01,19.30
2006,07,22,05,02,19.30
2006,07,22,05,03,19.30
2006,07,22,05,04,19.30
2006,07,22,05,05,19.30
2006,07,22,05,06,19.30
2006,07,22,05,07,19.30
2006,07,22,05,08,19.30
2006,07,22,05,09,19.30
2006,07,22,05,10,19.30
2006,07,22,05,11,19.30
2006,07,22,05,12,19.30
2006,07,22,05,13,19.30
2006,07,22,05,14,19.30
2006,07,22,05,15,19.30
2006,07,22,05,16,19.30
2006,07,22,05,17,19.20
2006,07,22,05,18,19.20
2006,07,22,05,19,19.20
2006,07,22,05,20,19.20
2006,07,22,05,21,19.20
2006,07,22,05,22,19.10
2006,07,22,05,23,19.10
2006,07,22,05,24,19.10
2006,07,22,05,25,18.90
2006,07,22,05,26,18.90
2006,07,22,05,27,18.80
2006,07,22,05,28,18.70
2006,07,22,05,29,18.60
2006,07,22,05,30,18.60
2006,07,22,05,31,18.50
2006,07,22,05,32,18.40
2006,07,22,05,33,18.40
2006,07,22,05,34,18.30
2006,07,22,05,35,18.20
2006,07,22,05,36,18.20
2006,07,22,05,37,18.20
2006,07,22,05,38,18.20
2006,07,22,05,39,18.20
2006,07,22,05,40,18.10
2006,07,22,05,41,18.10
2006,07,22,05,42,18.10
2006,07,22,05,43,18.00
2006,07,22,05,44,17.90
2006,07,22,05,45,17.90
2006,07,22,05,46,17.90
2006,07,22,05,47,17.90
2006,07,22,05,48,17.90
2006,07,22,05,49,17.90
2006,07,22,05,50,17.90
2006,07,22,05,51,17.90
2006,07,22,05,52,17.90
2006,07,22,05,53,17.80
2006,07,22,05,54,17.80
2006,07,22,05,55,17.80
2006,07,22,05,56,17.80
2006,07,22,05,57,17.80
2006,07,22,05,58,17.80
2006,07,22,05,59,17.80
2006,07,22,06,00,17.80
2006,07,22,06,01,17.70
2006,07,22,06,02,17.70
2006,07,22,06,03,17.70
2006,07,22,06,04,17.70
2006,07,22,06,05,17.70
2006,07,22,06,06,17.80
2006,07,22,06,07,17.80
2006,07,22,06,08,17.80
2006,07,22,06,09,17.80
2006,07,22,06,10,17.80
2006,07,22,06,11,17.80
2006,07,22,06,12,17.80
2006,07,22,06,13,17.80
2006,07,22,06,14,17.80
2006,07,22,06,15,17.80
2006,07,22,06,16,17.80
2006,07,22,06,17,17.80
2006,07,22,06,18,17.80
2006,07,22,06,19,17.80
2006,07,22,06,20,17.80
2006,07,22,06,21,17.80
2006,07,22,06,22,17.80
2006,07,22,06,23,17.80
2006,07,22,06,24,17.80
2006,07,22,06,25,17.80
2006,07,22,06,26,17.90
2006,07,22,06,27,17.90
2006,07,22,06,28,17.90
2006,07,22,06,29,17.90
2006,07,22,06,30,17.90
2006,07,22,06,31,17.90
2006,07,22,06,32,17.90
2006,07,22,06,33,17.90
2006,07,22,06,34,17.90
2006,07,22,06,35,17.90
2006,07,22,06,36,18.00
2006,07,22,06,37,18.10
2006,07,22,06,38,18.10
2006,07,22,06,39,18.10
2006,07,22,06,40,18.10
2006,07,22,06,41,18.10
2006,07,22,06,42,18.20
2006,07,22,06,43,18.20
2006,07,22,06,44,18.20
2006,07,22,06,45,18.20
2006,07,22,06,46,18.30
2006,07,22,06,47,18.30
2006,07,22,06,48,18.30
2006,07,22,06,49,18.40
2006,07,22,06,50,18.40
2006,07,22,06,51,18.40
2006,07,22,06,52,18.40
2006,07,22,06,53,18.50
2006,07,22,06,54,18.50
2006,07,22,06,55,18.60
2006,07,22,06,56,18.60
2006,07,22,06,57,18.60
2006,07,22,06,58,18.70
2006,07,22,06,59,18.70
2006,07,22,07,00,18.80
2006,07,22,07,01,18.80
2006,07,22,07,02,18.90
2006,07,22,07,03,18.90
2006,07,22,07,04,18.90
2006,07,22,07,05,19.00
2006,07,22,07,06,19.10
2006,07,22,07,07,19.10
2006,07,22,07,08,19.10
2006,07,22,07,09,19.20
2006,07,22,07,10,19.30
2006,07,22,07,11,19.40
2006,07,22,07,12,19.50
2006,07,22,07,13,19.60
2006,07,22,07,14,19.70
2006,07,22,07,15,19.90
2006,07,22,07,16,20.00
2006,07,22,07,17,20.10
2006,07,22,07,18,20.20
2006,07,22,07,19,20.30
2006,07,22,07,20,20.40
2006,07,22,07,21,20.50
2006,07,22,07,22,20.50
2006,07,22,07,23,20.60
2006,07,22,07,24,20.70
2006,07,22,07,25,20.70
2006,07,22,07,26,20.80
2006,07,22,07,27,20.80
2006,07,22,07,28,20.80
2006,07,22,07,29,20.90
2006,07,22,07,30,20.90
2006,07,22,07,31,20.90
2006,07,22,07,32,21.00
2006,07,22,07,33,21.00
2006,07,22,07,34,21.00
2006,07,22,07,35,21.10
2006,07,22,07,36,21.20
2006,07,22,07,37,21.30
2006,07,22,07,38,21.30
2006,07,22,07,39,21.30
2006,07,22,07,40,21.30
2006,07,22,07,41,21.40
2006,07,22,07,42,21.50
2006,07,22,07,43,21.60
2006,07,22,07,44,21.60
2006,07,22,07,45,21.60
2006,07,22,07,46,21.60
2006,07,22,07,47,21.60
2006,07,22,07,48,21.60
2006,07,22,07,49,21.60
2006,07,22,07,50,21.60
2006,07,22,07,51,21.60
2006,07,22,07,52,21.60
2006,07,22,07,53,21.60
2006,07,22,07,54,21.60
2006,07,22,07,55,21.60
2006,07,22,07,56,21.70
2006,07,22,07,57,21.70
2006,07,22,07,58,21.70
2006,07,22,07,59,21.80
2006,07,22,08,00,21.80
2006,07,22,08,01,21.80
2006,07,22,08,02,21.90
2006,07,22,08,03,21.90
2006,07,22,08,04,21.90
2006,07,22,08,05,22.00
2006,07,22,08,06,22.00
2006,07,22,08,07,22.00
2006,07,22,08,08,22.10
2006,07,22,08,09,22.10
2006,07,22,08,10,22.20
2006,07,22,08,11,22.20
2006,07,22,08,12,22.20
2006,07,22,08,13,22.30
2006,07,22,08,14,22.30
2006,07,22,08,15,22.30
2006,07,22,08,16,22.40
2006,07,22,08,17,22.40
2006,07,22,08,18,22.40
2006,07,22,08,19,22.50
2006,07,22,08,20,22.60
2006,07,22,08,21,22.60
2006,07,22,08,22,22.60
2006,07,22,08,23,22.70
2006,07,22,08,24,22.70
2006,07,22,08,25,22.80
2006,07,22,08,26,22.80
2006,07,22,08,27,22.90
2006,07,22,08,28,22.90
2006,07,22,08,29,23.00
2006,07,22,08,30,23.10
2006,07,22,08,31,23.20
2006,07,22,08,32,23.20
2006,07,22,08,33,23.30
2006,07,22,08,34,23.30
2006,07,22,08,35,23.40
2006,07,22,08,36,23.40
2006,07,22,08,37,23.40
2006,07,22,08,38,23.50
2006,07,22,08,39,23.60
2006,07,22,08,40,23.60
2006,07,22,08,41,23.70
2006,07,22,08,42,23.70
2006,07,22,08,43,23.80
2006,07,22,08,44,23.90
2006,07,22,08,45,23.90
2006,07,22,08,46,24.00
2006,07,22,08,47,24.10
2006,07,22,08,48,24.10
2006,07,22,08,49,24.20
2006,07,22,08,50,24.40
2006,07,22,08,51,24.50
2006,07,22,08,52,24.60
2006,07,22,08,53,24.70
2006,07,22,08,54,24.90
2006,07,22,08,55,24.90
2006,07,22,08,56,25.10
2006,07,22,08,57,25.20
2006,07,22,08,58,25.30
2006,07,22,08,59,25.40
2006,07,22,09,00,25.40
2006,07,22,09,01,25.50
2006,07,22,09,02,25.60
2006,07,22,09,03,25.70
2006,07,22,09,04,25.90
2006,07,22,09,05,26.00
2006,07,22,09,06,26.10
2006,07,22,09,07,26.20
2006,07,22,09,08,26.20
2006,07,22,09,09,26.20
2006,07,22,09,10,25.80
2006,07,22,09,11,25.20
2006,07,22,09,12,24.50
2006,07,22,09,13,23.60
2006,07,22,09,14,22.70
2006,07,22,09,15,22.10
2006,07,22,09,16,21.60
2006,07,22,09,17,21.00
2006,07,22,09,18,20.30
2006,07,22,09,19,19.90
2006,07,22,09,20,19.80
2006,07,22,09,21,19.70
2006,07,22,09,22,19.60
2006,07,22,09,23,19.70
2006,07,22,09,24,19.70
2006,07,22,09,25,19.80
2006,07,22,09,26,19.70
2006,07,22,09,27,19.50
2006,07,22,09,28,19.10
2006,07,22,09,29,18.80
2006,07,22,09,30,18.70
2006,07,22,09,31,18.70
2006,07,22,09,32,18.80
2006,07,22,09,33,18.90
2006,07,22,09,34,19.00
2006,07,22,09,35,19.20
2006,07,22,09,36,19.40
2006,07,22,09,37,19.50
2006,07,22,09,38,19.60
2006,07,22,09,39,19.80
2006,07,22,09,40,19.90
2006,07,22,09,41,19.90
2006,07,22,09,42,19.90
2006,07,22,09,43,19.90
2006,07,22,09,44,19.90
2006,07,22,09,45,19.90
2006,07,22,09,46,20.00
2006,07,22,09,47,20.10
2006,07,22,09,48,20.10
2006,07,22,09,49,20.20
2006,07,22,09,50,20.20
2006,07,22,09,51,20.20
2006,07,22,09,52,20.30
2006,07,22,09,53,20.40
2006,07,22,09,54,20.40
2006,07,22,09,55,20.50
2006,07,22,09,56,20.60
2006,07,22,09,57,20.60
2006,07,22,09,58,20.70
2006,07,22,09,59,20.80
2006,07,22,10,00,21.00
2006,07,22,10,01,21.10
2006,07,22,10,02,21.20
2006,07,22,10,03,21.30
2006,07,22,10,04,21.50
2006,07,22,10,05,21.60
2006,07,22,10,06,21.80
2006,07,22,10,07,22.00
2006,07,22,10,08,22.20
2006,07,22,10,09,22.50
2006,07,22,10,10,22.80
2006,07,22,10,11,23.00
2006,07,22,10,12,23.20
2006,07,22,10,13,23.30
2006,07,22,10,14,23.60
2006,07,22,10,15,24.00
2006,07,22,10,16,24.30
2006,07,22,10,17,24.60
2006,07,22,10,18,24.80
2006,07,22,10,19,24.80
2006,07,22,10,20,24.90
2006,07,22,10,21,24.90
2006,07,22,10,22,24.90
2006,07,22,10,23,24.80
2006,07,22,10,24,24.80
2006,07,22,10,25,24.80
2006,07,22,10,26,24.80
2006,07,22,10,27,24.80
2006,07,22,10,28,24.80
2006,07,22,10,29,24.80
2006,07,22,10,30,24.80
2006,07,22,10,31,24.90
2006,07,22,10,32,24.90
2006,07,22,10,33,25.00
2006,07,22,10,34,25.00
2006,07,22,10,35,24.70
2006,07,22,10,36,24.30
2006,07,22,10,37,23.60
2006,07,22,10,38,23.10
2006,07,22,10,39,22.70
2006,07,22,10,40,22.40
2006,07,22,10,41,22.30
2006,07,22,10,42,22.30
2006,07,22,10,43,22.30
2006,07,22,10,44,22.30
2006,07,22,10,45,22.50
2006,07,22,10,46,22.50
2006,07,22,10,47,22.60
2006,07,22,10,48,22.70
2006,07,22,10,49,22.80
2006,07,22,10,50,22.90
2006,07,22,10,51,22.90
2006,07,22,10,52,22.90
2006,07,22,10,53,22.90
2006,07,22,10,54,22.90
2006,07,22,10,55,22.80
2006,07,22,10,56,22.70
2006,07,22,10,57,22.60
2006,07,22,10,58,22.50
2006,07,22,10,59,22.50
2006,07,22,11,00,22.50
2006,07,22,11,01,22.50
2006,07,22,11,02,22.50
2006,07,22,11,03,22.60
2006,07,22,11,04,22.60
2006,07,22,11,05,22.60
2006,07,22,11,06,22.60
2006,07,22,11,07,22.60
2006,07,22,11,08,22.70
2006,07,22,11,09,22.90
2006,07,22,11,10,23.10
2006,07,22,11,11,23.30
2006,07,22,11,12,23.30
2006,07,22,11,13,23.30
2006,07,22,11,14,23.30
2006,07,22,11,15,23.30
2006,07,22,11,16,23.30
2006,07,22,11,17,23.40
2006,07,22,11,18,23.50
2006,07,22,11,19,23.70
2006,07,22,11,20,23.80
2006,07,22,11,21,24.00
2006,07,22,11,22,24.10
2006,07,22,11,23,24.10
2006,07,22,11,24,24.10
2006,07,22,11,25,24.10
2006,07,22,11,26,24.10
2006,07,22,11,27,24.10
2006,07,22,11,28,24.20
2006,07,22,11,29,24.30
2006,07,22,11,30,24.40
2006,07,22,11,31,24.40
2006,07,22,11,32,24.50
2006,07,22,11,33,24.60
2006,07,22,11,34,24.70
2006,07,22,11,35,24.70
2006,07,22,11,36,24.70
2006,07,22,11,37,24.70
2006,07,22,11,38,24.60
2006,07,22,11,39,24.60
2006,07,22,11,40,24.60
2006,07,22,11,41,24.60
2006,07,22,11,42,24.80
2006,07,22,11,43,25.00
2006,07,22,11,44,25.00
2006,07,22,11,45,25.00
2006,07,22,11,46,24.90
2006,07,22,11,47,24.90
2006,07,22,11,48,25.00
2006,07,22,11,49,25.20
2006,07,22,11,50,25.40
2006,07,22,11,51,25.50
2006,07,22,11,52,25.40
2006,07,22,11,53,25.50
2006,07,22,11,54,25.50
2006,07,22,11,55,25.50
2006,07,22,11,56,25.60
2006,07,22,11,57,25.60
2006,07,22,11,58,25.70
2006,07,22,11,59,25.90
2006,07,22,12,00,26.00
2006,07,22,12,01,26.20
2006,07,22,12,02,26.40
2006,07,22,12,03,26.60
2006,07,22,12,04,26.60
2006,07,22,12,05,26.60
2006,07,22,12,06,26.70
2006,07,22,12,07,26.90
2006,07,22,12,08,27.00
2006,07,22,12,09,27.10
2006,07,22,12,10,27.30
2006,07,22,12,11,27.30
2006,07,22,12,12,27.30
2006,07,22,12,13,27.30
2006,07,22,12,14,27.30
2006,07,22,12,15,27.40
2006,07,22,12,16,27.40
2006,07,22,12,17,27.40
2006,07,22,12,18,27.50
2006,07,22,12,19,27.60
2006,07,22,12,20,27.70
2006,07,22,12,21,27.90
2006,07,22,12,22,28.00
2006,07,22,12,23,28.20
2006,07,22,12,24,28.50
2006,07,22,12,25,28.80
2006,07,22,12,26,28.90
2006,07,22,12,27,28.80
2006,07,22,12,28,28.80
2006,07,22,12,29,28.70
2006,07,22,12,30,28.80
2006,07,22,12,31,28.90
2006,07,22,12,32,29.00
2006,07,22,12,33,29.10
2006,07,22,12,34,29.20
2006,07,22,12,35,29.30
2006,07,22,12,36,29.30
2006,07,22,12,37,29.10
2006,07,22,12,38,29.00
2006,07,22,12,39,28.90
2006,07,22,12,40,28.90
2006,07,22,12,41,28.90
2006,07,22,12,42,28.70
2006,07,22,12,43,28.70
2006,07,22,12,44,28.70
2006,07,22,12,45,28.90
2006,07,22,12,46,29.10
2006,07,22,12,47,29.20
2006,07,22,12,48,29.30
2006,07,22,12,49,29.30
2006,07,22,12,50,29.20
2006,07,22,12,51,29.20
2006,07,22,12,52,29.30
2006,07,22,12,53,29.40
2006,07,22,12,54,29.50
2006,07,22,12,55,29.60
2006,07,22,12,56,29.70
2006,07,22,12,57,29.80
2006,07,22,12,58,29.90
2006,07,22,12,59,29.90
2006,07,22,13,00,29.80
2006,07,22,13,01,29.80
2006,07,22,13,02,29.90
2006,07,22,13,03,29.90
2006,07,22,13,04,29.90
2006,07,22,13,05,29.90
2006,07,22,13,06,29.80
2006,07,22,13,07,30.00
2006,07,22,13,08,30.20
2006,07,22,13,09,30.30
2006,07,22,13,10,30.40
2006,07,22,13,11,30.60
2006,07,22,13,12,30.70
2006,07,22,13,13,30.80
2006,07,22,13,14,30.90
2006,07,22,13,15,31.00
2006,07,22,13,16,31.00
2006,07,22,13,17,31.10
2006,07,22,13,18,31.20
2006,07,22,13,19,31.30
2006,07,22,13,20,31.30
2006,07,22,13,21,31.40
2006,07,22,13,22,31.40
2006,07,22,13,23,31.60
2006,07,22,13,24,31.70
2006,07,22,13,25,31.80
2006,07,22,13,26,31.70
2006,07,22,13,27,31.70
2006,07,22,13,28,31.70
2006,07,22,13,29,31.80
2006,07,22,13,30,31.90
2006,07,22,13,31,32.10
2006,07,22,13,32,32.20
2006,07,22,13,33,32.40
2006,07,22,13,34,32.40
2006,07,22,13,35,32.00
2006,07,22,13,36,31.30
2006,07,22,13,37,30.80
2006,07,22,13,38,30.20
2006,07,22,13,39,29.60
2006,07,22,13,40,29.00
2006,07,22,13,41,28.30
2006,07,22,13,42,28.00
2006,07,22,13,43,27.80
2006,07,22,13,44,27.70
2006,07,22,13,45,27.30
2006,07,22,13,46,26.90
2006,07,22,13,47,26.50
2006,07,22,13,48,26.10
2006,07,22,13,49,25.80
2006,07,22,13,50,25.60
2006,07,22,13,51,25.50
2006,07,22,13,52,25.50
2006,07,22,13,53,25.70
2006,07,22,13,54,25.80
2006,07,22,13,55,25.70
2006,07,22,13,56,25.60
2006,07,22,13,57,25.70
2006,07,22,13,58,25.70
2006,07,22,13,59,25.60
2006,07,22,14,00,25.40
2006,07,22,14,01,25.30
2006,07,22,14,02,25.20
2006,07,22,14,03,25.20
2006,07,22,14,04,25.20
2006,07,22,14,05,25.10
2006,07,22,14,06,25.20
2006,07,22,14,07,25.00
2006,07,22,14,08,24.90
2006,07,22,14,09,24.90
2006,07,22,14,10,24.80
2006,07,22,14,11,24.80
2006,07,22,14,12,24.80
2006,07,22,14,13,24.90
2006,07,22,14,14,24.90
2006,07,22,14,15,24.80
2006,07,22,14,16,24.70
2006,07,22,14,17,24.70
2006,07,22,14,18,24.70
2006,07,22,14,19,24.70
2006,07,22,14,20,24.80
2006,07,22,14,21,24.80
2006,07,22,14,22,24.80
2006,07,22,14,23,24.70
2006,07,22,14,24,24.70
2006,07,22,14,25,24.70
2006,07,22,14,26,24.90
2006,07,22,14,27,25.10
2006,07,22,14,28,25.20
2006,07,22,14,29,25.10
2006,07,22,14,30,25.20
2006,07,22,14,31,25.30
2006,07,22,14,32,25.20
2006,07,22,14,33,25.20
2006,07,22,14,34,25.20
2006,07,22,14,35,25.10
2006,07,22,14,36,25.10
2006,07,22,14,37,25.30
2006,07,22,14,38,25.30
2006,07,22,14,39,25.30
2006,07,22,14,40,25.40
2006,07,22,14,41,25.50
2006,07,22,14,42,25.60
2006,07,22,14,43,25.70
2006,07,22,14,44,25.80
2006,07,22,14,45,25.80
2006,07,22,14,46,25.70
2006,07,22,14,47,25.60
2006,07,22,14,48,25.50
2006,07,22,14,49,25.60
2006,07,22,14,50,25.60
2006,07,22,14,51,25.60
2006,07,22,14,52,25.70
2006,07,22,14,53,25.80
2006,07,22,14,54,25.90
2006,07,22,14,55,25.90
2006,07,22,14,56,25.90
2006,07,22,14,57,26.00
2006,07,22,14,58,26.10
2006,07,22,14,59,26.00
2006,07,22,15,00,26.00
2006,07,22,15,01,26.00
2006,07,22,15,02,25.90
2006,07,22,15,03,26.00
2006,07,22,15,04,26.00
2006,07,22,15,05,26.00
2006,07,22,15,06,26.20
2006,07,22,15,07,26.30
2006,07,22,15,08,26.30
2006,07,22,15,09,26.30
2006,07,22,15,10,26.40
2006,07,22,15,11,26.40
2006,07,22,15,12,26.40
2006,07,22,15,13,26.50
2006,07,22,15,14,26.50
2006,07,22,15,15,26.60
2006,07,22,15,16,26.40
2006,07,22,15,17,26.40
2006,07,22,15,18,26.40
2006,07,22,15,19,26.40
2006,07,22,15,20,26.30
2006,07,22,15,21,26.30
2006,07,22,15,22,26.50
2006,07,22,15,23,26.60
2006,07,22,15,24,26.60
2006,07,22,15,25,26.70
2006,07,22,15,26,26.80
2006,07,22,15,27,26.90
2006,07,22,15,28,26.90
2006,07,22,15,29,26.90
2006,07,22,15,30,26.80
2006,07,22,15,31,26.90
2006,07,22,15,32,27.00
2006,07,22,15,33,27.10
2006,07,22,15,34,27.00
2006,07,22,15,35,26.90
2006,07,22,15,36,26.90
2006,07,22,15,37,26.80
2006,07,22,15,38,26.70
2006,07,22,15,39,26.60
2006,07,22,15,40,26.70
2006,07,22,15,41,26.80
2006,07,22,15,42,26.90
2006,07,22,15,43,27.00
2006,07,22,15,44,27.10
2006,07,22,15,45,27.10
2006,07,22,15,46,27.10
2006,07,22,15,47,27.10
2006,07,22,15,48,27.20
2006,07,22,15,49,27.20
2006,07,22,15,50,27.20
2006,07,22,15,51,27.20
2006,07,22,15,52,27.20
2006,07,22,15,53,27.30
2006,07,22,15,54,27.30
2006,07,22,15,55,27.20
2006,07,22,15,56,27.10
2006,07,22,15,57,27.10
2006,07,22,15,58,27.20
2006,07,22,15,59,27.30
2006,07,22,16,00,27.40
2006,07,22,16,01,27.70
2006,07,22,16,02,27.90
2006,07,22,16,03,28.00
2006,07,22,16,04,28.10
2006,07,22,16,05,28.10
2006,07,22,16,06,28.10
2006,07,22,16,07,28.20
2006,07,22,16,08,28.20
2006,07,22,16,09,28.20
2006,07,22,16,10,28.20
2006,07,22,16,11,28.00
2006,07,22,16,12,27.90
2006,07,22,16,13,27.90
2006,07,22,16,14,27.70
2006,07,22,16,15,27.60
2006,07,22,16,16,27.50
2006,07,22,16,17,27.40
2006,07,22,16,18,27.30
2006,07,22,16,19,27.20
2006,07,22,16,20,27.20
2006,07,22,16,21,27.10
2006,07,22,16,22,27.00
2006,07,22,16,23,26.90
2006,07,22,16,24,26.80
2006,07,22,16,25,26.70
2006,07,22,16,26,26.60
2006,07,22,16,27,26.50
2006,07,22,16,28,26.30
2006,07,22,16,29,26.10
2006,07,22,16,30,26.00
2006,07,22,16,31,25.90
2006,07,22,16,32,25.90
2006,07,22,16,33,25.90
2006,07,22,16,34,25.90
2006,07,22,16,35,26.00
2006,07,22,16,36,26.10
2006,07,22,16,37,26.00
2006,07,22,16,38,25.90
2006,07,22,16,39,25.80
2006,07,22,16,40,25.80
2006,07,22,16,41,25.80
2006,07,22,16,42,25.70
2006,07,22,16,43,25.70
2006,07,22,16,44,25.70
2006,07,22,16,45,25.80
2006,07,22,16,46,25.90
2006,07,22,16,47,25.90
2006,07,22,16,48,25.80
2006,07,22,16,49,25.70
2006,07,22,16,50,25.70
2006,07,22,16,51,25.60
2006,07,22,16,52,25.60
2006,07,22,16,53,25.50
2006,07,22,16,54,25.50
2006,07,22,16,55,25.60
2006,07,22,16,56,25.70
2006,07,22,16,57,25.80
2006,07,22,16,58,26.00
2006,07,22,16,59,26.10
2006,07,22,17,00,26.10
2006,07,22,17,01,26.10
2006,07,22,17,02,26.10
2006,07,22,17,03,26.00
2006,07,22,17,04,26.00
2006,07,22,17,05,26.10
2006,07,22,17,06,26.10
2006,07,22,17,07,26.10
2006,07,22,17,08,26.10
2006,07,22,17,09,26.10
2006,07,22,17,10,26.20
2006,07,22,17,11,26.10
2006,07,22,17,12,26.10
2006,07,22,17,13,26.10
2006,07,22,17,14,26.20
2006,07,22,17,15,26.30
2006,07,22,17,16,26.30
2006,07,22,17,17,26.40
2006,07,22,17,18,26.40
2006,07,22,17,19,26.40